| time (UTC) | temp F | wind direction | speed MPH | gust MPH | rain 1hr in | rain 24hr in | rain mn in | humidity % | barometer mb |
| 20260904193542 | 73 | 292 | 4.0 | 11.0 | 0.00 | 0.01 | 0.01 | 43 | 1012.8 |
| 20260904192542 | 71 | 342 | 6.0 | 12.0 | 0.00 | 0.01 | 0.01 | 45 | 1012.8 |
| 20260904191540 | 71 | 355 | 4.0 | 10.0 | 0.00 | 0.01 | 0.01 | 47 | 1012.9 |
| 20260904190539 | 71 | 229 | 3.0 | 10.0 | 0.00 | 0.01 | 0.01 | 52 | 1012.9 |
| 20260904185536 | 71 | 281 | 4.0 | 9.0 | 0.00 | 0.01 | 0.01 | 52 | 1013.0 |
| 20260904184536 | 69 | 294 | 3.0 | 9.0 | 0.00 | 0.01 | 0.01 | 55 | 1012.9 |
| 20260904183535 | 68 | 265 | 4.0 | 11.0 | 0.00 | 0.01 | 0.01 | 56 | 1013.0 |
| 20260904182531 | 67 | 245 | 4.0 | 11.0 | 0.00 | 0.01 | 0.01 | 60 | 1013.0 |
| 20260904181529 | 67 | 343 | 6.0 | 11.0 | 0.00 | 0.01 | 0.01 | 62 | 1013.1 |
| 20260904180524 | 66 | 311 | 6.0 | 13.0 | 0.00 | 0.01 | 0.01 | 62 | 1013.2 |
| 20260904175524 | 65 | 339 | 6.0 | 13.0 | 0.00 | 0.01 | 0.01 | 65 | 1013.1 |
| 20260904174525 | 65 | 309 | 5.0 | 12.0 | 0.00 | 0.01 | 0.01 | 67 | 1013.1 |
| 20260904173523 | 64 | 302 | 5.0 | 10.0 | 0.00 | 0.01 | 0.01 | 69 | 1013.1 |
| 20260904173001 | 64 | 209 | 5.0 | 12.0 | 0.00 | 0.01 | 0.01 | 71 | 1013.0 |
| 20260904171524 | 63 | 344 | 5.0 | 10.0 | 0.00 | 0.01 | 0.01 | 72 | 1013.1 |
| 20260904170521 | 62 | 307 | 5.0 | 11.0 | 0.00 | 0.01 | 0.01 | 75 | 1013.0 |
| 20260904165826 | 60 | 342 | 3.0 | 6.0 | 0.00 | 0.01 | 0.01 | 83 | 1012.9 |
| 20260904165521 | 62 | 319 | 3.0 | 10.0 | 0.00 | 0.01 | 0.01 | 78 | 1013.0 |
| 20260904164539 | 61 | 325 | 3.0 | 8.0 | 0.00 | 0.01 | 0.01 | 80 | 1013.0 |
| 20260904162951 | 59 | 12 | 4.0 | 6.0 | 0.00 | 0.01 | 0.01 | 83 | 1012.9 |
| 20260904161513 | 58 | 17 | 4.0 | 7.0 | 0.00 | 0.01 | 0.01 | 85 | 1013.0 |
| 20260904160513 | 57 | 0 | 3.0 | 7.0 | 0.00 | 0.01 | 0.01 | 87 | 1013.1 |
| 20260904155515 | 56 | 342 | 3.0 | 6.0 | 0.00 | 0.01 | 0.01 | 88 | 1013.0 |
| 20260904154512 | 55 | 279 | 3.0 | 6.0 | 0.00 | 0.01 | 0.01 | 91 | 1013.0 |
| 20260904153510 | 54 | 315 | 1.0 | 5.0 | 0.00 | 0.01 | 0.01 | 93 | 1012.9 |
| 20260904153433 | 53 | 313 | 1.0 | 5.0 | 0.00 | 0.01 | 0.01 | 95 | 1012.9 |
| 20260904151941 | 52 | 317 | 1.0 | 4.0 | 0.00 | 0.01 | 0.01 | 96 | 1012.8 |
| 20260904150435 | 51 | 333 | 0.0 | 5.0 | 0.00 | 0.02 | 0.01 | 95 | 1012.6 |
| 20260904145418 | 50 | 336 | 1.0 | 3.0 | 0.00 | 0.02 | 0.01 | 94 | 1012.6 |
| 20260904144328 | 50 | 346 | 0.0 | 2.0 | 0.00 | 0.02 | 0.01 | 93 | 1012.4 |
| 20260904143817 | 50 | 349 | 0.0 | 2.0 | 0.00 | 0.02 | 0.01 | 94 | 1012.3 |
| 20260904142811 | 50 | 22 | 0.0 | 0.0 | 0.00 | 0.03 | 0.01 | 93 | 1012.2 |
| 20260904141325 | 51 | 22 | 0.0 | 1.0 | 0.00 | 0.03 | 0.01 | 93 | 1012.2 |
| 20260904140319 | 51 | 27 | 1.0 | 3.0 | 0.00 | 0.03 | 0.01 | 93 | 1012.1 |
| 20260904134313 | 51 | 310 | 2.0 | 3.0 | 0.00 | 0.04 | 0.01 | 94 | 1011.9 |
| 20260904133311 | 51 | 0 | 1.0 | 2.0 | 0.01 | 0.04 | 0.01 | 93 | 1011.8 |
| 20260904132307 | 52 | 333 | 0.0 | 2.0 | 0.01 | 0.05 | 0.01 | 93 | 1011.6 |
| 20260904131305 | 52 | 334 | 1.0 | 2.0 | 0.01 | 0.05 | 0.01 | 93 | 1011.5 |
| 20260904130253 | 52 | 334 | 0.0 | 1.0 | 0.01 | 0.05 | 0.01 | 92 | 1011.3 |
| 20260904125252 | 52 | 5 | 1.0 | 2.0 | 0.01 | 0.06 | 0.01 | 93 | 1011.2 |
| 20260904124253 | 53 | 335 | 1.0 | 3.0 | 0.01 | 0.06 | 0.01 | 93 | 1011.2 |
| 20260904123251 | 53 | 336 | 1.0 | 3.0 | 0.00 | 0.05 | 0.00 | 93 | 1011.2 |
| 20260904122723 | 53 | 328 | 1.0 | 3.0 | 0.00 | 0.05 | 0.00 | 93 | 1011.2 |
| 20260904121245 | 53 | 5 | 2.0 | 3.0 | 0.00 | 0.05 | 0.00 | 93 | 1011.2 |
| 20260904120245 | 53 | 40 | 2.0 | 4.0 | 0.00 | 0.05 | 0.00 | 94 | 1011.2 |
| 20260904115723 | 52 | 28 | 1.0 | 4.0 | 0.00 | 0.05 | 0.00 | 94 | 1011.1 |
| 20260904114243 | 52 | 38 | 2.0 | 3.0 | 0.00 | 0.05 | 0.00 | 93 | 1011.0 |
| 20260904113230 | 52 | 22 | 2.0 | 4.0 | 0.00 | 0.05 | 0.00 | 95 | 1011.0 |
| 20260904112738 | 52 | 28 | 0.0 | 2.0 | 0.00 | 0.05 | 0.00 | 94 | 1011.1 |
| 20260904112640 | 52 | 23 | 0.0 | 0.0 | 0.00 | 0.05 | 0.00 | 94 | 1011.0 |
| 20260904110223 | 52 | 9 | 0.0 | 3.0 | 0.00 | 0.05 | 0.00 | 94 | 1011.0 |
| 20260904105214 | 52 | 30 | 0.0 | 0.0 | 0.00 | 0.05 | 0.00 | 93 | 1011.0 |
| 20260904104210 | 52 | 30 | 0.0 | 0.0 | 0.00 | 0.05 | 0.00 | 93 | 1011.0 |
| 20260904103207 | 53 | 30 | 0.0 | 0.0 | 0.00 | 0.05 | 0.00 | 94 | 1011.1 |
| 20260904102203 | 53 | 30 | 0.0 | 0.0 | 0.00 | 0.05 | 0.00 | 94 | 1011.0 |
| 20260904101201 | 53 | 30 | 2.0 | 4.0 | 0.00 | 0.05 | 0.00 | 94 | 1011.1 |
| 20260904100158 | 53 | 49 | 2.0 | 3.0 | 0.00 | 0.05 | 0.00 | 94 | 1011.0 |
| 20260904095151 | 53 | 36 | 1.0 | 2.0 | 0.00 | 0.05 | 0.00 | 94 | 1011.0 |
| 20260904094145 | 53 | 36 | 2.0 | 3.0 | 0.00 | 0.05 | 0.00 | 93 | 1010.9 |
| 20260904093134 | 53 | 44 | 1.0 | 3.0 | 0.00 | 0.05 | 0.00 | 93 | 1010.9 |
| 20260904092132 | 53 | 116 | 1.0 | 2.0 | 0.00 | 0.05 | 0.00 | 93 | 1010.9 |
| 20260904091125 | 54 | 116 | 1.0 | 3.0 | 0.00 | 0.05 | 0.00 | 93 | 1010.8 |
| 20260904090113 | 53 | 55 | 0.0 | 0.0 | 0.00 | 0.05 | 0.00 | 93 | 1010.8 |
| 20260904085513 | 54 | 21 | 0.0 | 0.0 | 0.00 | 0.05 | 0.00 | 92 | 1010.7 |
| 20260904085140 | 54 | 21 | 0.0 | 0.0 | 0.00 | 0.05 | 0.00 | 93 | 1010.7 |
| 20260904083057 | 55 | 21 | 0.0 | 0.0 | 0.00 | 0.05 | 0.00 | 92 | 1010.7 |
| 20260904082057 | 55 | 16 | 1.0 | 3.0 | 0.00 | 0.05 | 0.00 | 93 | 1010.7 |
| 20260904081526 | 55 | 37 | 2.0 | 3.0 | 0.00 | 0.05 | 0.00 | 92 | 1010.8 |
| 20260904080048 | 55 | 24 | 1.0 | 3.0 | 0.00 | 0.05 | 0.00 | 93 | 1010.7 |
| 20260904075049 | 55 | 31 | 0.0 | 2.0 | 0.00 | 0.05 | 0.00 | 92 | 1010.8 |
| 20260904074049 | 55 | 42 | 2.0 | 3.0 | 0.00 | 0.05 | 0.00 | 91 | 1010.8 |
| 20260904073045 | 56 | 55 | 2.0 | 3.0 | 0.00 | 0.05 | 0.00 | 92 | 1010.8 |
| 20260904072043 | 56 | 59 | 2.0 | 3.0 | 0.00 | 0.05 | 0.00 | 91 | 1010.8 |
| 20260904071042 | 56 | 58 | 2.0 | 4.0 | 0.00 | 0.05 | 0.00 | 91 | 1010.8 |
| 20260904070037 | 57 | 46 | 1.0 | 3.0 | 0.00 | 0.05 | 0.00 | 91 | 1010.8 |
| 20260904065519 | 56 | 43 | 2.0 | 3.0 | 0.00 | 0.05 | 0.05 | 92 | 1010.8 |
| 20260904064514 | 56 | 58 | 2.0 | 3.0 | 0.00 | 0.05 | 0.05 | 90 | 1010.8 |
| 20260904063519 | 56 | 42 | 3.0 | 4.0 | 0.00 | 0.05 | 0.05 | 92 | 1010.7 |
| 20260904062021 | 56 | 55 | 3.0 | 5.0 | 0.00 | 0.05 | 0.05 | 92 | 1010.6 |
| 20260904061020 | 56 | 48 | 3.0 | 5.0 | 0.00 | 0.05 | 0.05 | 90 | 1010.6 |
| 20260904060016 | 56 | 43 | 2.0 | 3.0 | 0.00 | 0.05 | 0.05 | 90 | 1010.7 |
| 20260904055002 | 57 | 42 | 3.0 | 4.0 | 0.00 | 0.05 | 0.05 | 90 | 1010.7 |
| 20260904054000 | 57 | 46 | 2.0 | 4.0 | 0.00 | 0.05 | 0.05 | 89 | 1010.7 |
| 20260904053435 | 57 | 48 | 2.0 | 4.0 | 0.00 | 0.05 | 0.05 | 88 | 1010.8 |
| 20260904051951 | 58 | 45 | 3.0 | 4.0 | 0.00 | 0.05 | 0.05 | 87 | 1010.8 |
| 20260904050948 | 59 | 61 | 3.0 | 4.0 | 0.00 | 0.05 | 0.05 | 87 | 1010.8 |
| 20260904045939 | 59 | 66 | 3.0 | 5.0 | 0.00 | 0.05 | 0.05 | 87 | 1010.8 |
| 20260904044939 | 59 | 65 | 3.0 | 4.0 | 0.00 | 0.05 | 0.05 | 86 | 1010.9 |
| 20260904044411 | 60 | 30 | 1.0 | 3.0 | 0.00 | 0.05 | 0.05 | 85 | 1010.9 |
| 20260904042921 | 60 | 30 | 1.0 | 3.0 | 0.00 | 0.05 | 0.05 | 85 | 1011.0 |
| 20260904041921 | 61 | 54 | 0.0 | 3.0 | 0.00 | 0.05 | 0.05 | 86 | 1011.0 |
| 20260904040921 | 61 | 349 | 0.0 | 0.0 | 0.00 | 0.05 | 0.05 | 86 | 1011.0 |
| 20260904035900 | 61 | 349 | 0.0 | 0.0 | 0.00 | 0.05 | 0.05 | 86 | 1010.9 |
| 20260904034857 | 61 | 349 | 0.0 | 2.0 | 0.00 | 0.05 | 0.05 | 86 | 1010.8 |
| 20260904033854 | 61 | 22 | 2.0 | 4.0 | 0.00 | 0.05 | 0.05 | 87 | 1010.7 |
| 20260904032853 | 60 | 22 | 0.0 | 4.0 | 0.00 | 0.05 | 0.05 | 88 | 1010.7 |
| 20260904031851 | 61 | 346 | 0.0 | 1.0 | 0.00 | 0.05 | 0.05 | 88 | 1010.6 |
| 20260904030851 | 61 | 355 | 0.0 | 2.0 | 0.00 | 0.05 | 0.05 | 88 | 1010.5 |
| 20260904025849 | 61 | 38 | 3.0 | 6.0 | 0.00 | 0.05 | 0.05 | 87 | 1010.5 |
| 20260904024848 | 61 | 10 | 2.0 | 4.0 | 0.00 | 0.05 | 0.05 | 86 | 1010.5 |
| 20260904023847 | 62 | 36 | 2.0 | 5.0 | 0.00 | 0.05 | 0.05 | 84 | 1010.6 |
| 20260904022843 | 63 | 16 | 3.0 | 8.0 | 0.00 | 0.05 | 0.05 | 81 | 1010.6 |
| 20260904021841 | 64 | 107 | 0.0 | 2.0 | 0.00 | 0.05 | 0.05 | 83 | 1010.5 |
| 20260904020840 | 64 | 271 | 1.0 | 5.0 | 0.00 | 0.05 | 0.05 | 82 | 1010.6 |
| 20260904015829 | 64 | 148 | 1.0 | 5.0 | 0.00 | 0.05 | 0.05 | 81 | 1010.6 |
| 20260904014828 | 65 | 133 | 2.0 | 6.0 | 0.00 | 0.05 | 0.05 | 80 | 1010.6 |
| 20260904014317 | 65 | 155 | 2.0 | 5.0 | 0.00 | 0.05 | 0.05 | 79 | 1010.6 |
| 20260904012827 | 66 | 139 | 2.0 | 5.0 | 0.00 | 0.05 | 0.05 | 77 | 1010.6 |
| 20260904011827 | 67 | 108 | 1.0 | 5.0 | 0.00 | 0.05 | 0.05 | 73 | 1010.6 |
| 20260904010827 | 67 | 256 | 0.0 | 3.0 | 0.00 | 0.05 | 0.05 | 71 | 1010.7 |
| 20260904005804 | 67 | 298 | 0.0 | 3.0 | 0.00 | 0.05 | 0.05 | 70 | 1010.6 |
| 20260904005244 | 67 | 195 | 1.0 | 3.0 | 0.00 | 0.05 | 0.05 | 70 | 1010.6 |
| 20260904003803 | 67 | 270 | 3.0 | 6.0 | 0.00 | 0.05 | 0.05 | 69 | 1010.7 |
| 20260904003232 | 67 | 255 | 1.0 | 4.0 | 0.00 | 0.05 | 0.05 | 70 | 1010.7 |
| 20260904001759 | 67 | 266 | 3.0 | 6.0 | 0.00 | 0.05 | 0.05 | 70 | 1010.8 |
| 20260904000756 | 67 | 275 | 2.0 | 6.0 | 0.00 | 0.05 | 0.05 | 69 | 1010.8 |
| 20260903235755 | 67 | 259 | 5.0 | 10.0 | 0.00 | 0.05 | 0.05 | 69 | 1010.9 |
| 20260903235707 | 67 | 275 | 5.0 | 8.0 | 0.00 | 0.05 | 0.05 | 70 | 1010.9 |
| 20260903234225 | 67 | 311 | 5.0 | 10.0 | 0.00 | 0.05 | 0.05 | 68 | 1010.9 |
| 20260903232743 | 67 | 269 | 5.0 | 11.0 | 0.00 | 0.05 | 0.05 | 69 | 1011.0 |
| 20260903231740 | 67 | 273 | 6.0 | 11.0 | 0.00 | 0.05 | 0.05 | 68 | 1011.1 |
| 20260903231647 | 68 | 253 | 6.0 | 12.0 | 0.00 | 0.05 | 0.05 | 68 | 1011.2 |
| 20260903225737 | 68 | 246 | 6.0 | 11.0 | 0.00 | 0.05 | 0.05 | 67 | 1011.1 |
| 20260903224736 | 69 | 273 | 6.0 | 11.0 | 0.00 | 0.05 | 0.05 | 66 | 1011.3 |
| 20260903223735 | 69 | 183 | 4.0 | 9.0 | 0.00 | 0.05 | 0.05 | 66 | 1011.4 |
| 20260903222733 | 69 | 268 | 5.0 | 11.0 | 0.00 | 0.05 | 0.05 | 65 | 1011.5 |
| 20260903221732 | 69 | 263 | 7.0 | 12.0 | 0.00 | 0.05 | 0.05 | 65 | 1011.6 |
| 20260903221208 | 70 | 281 | 4.0 | 12.0 | 0.00 | 0.05 | 0.05 | 63 | 1011.5 |
| 20260903215731 | 70 | 234 | 3.0 | 7.0 | 0.00 | 0.05 | 0.05 | 64 | 1011.6 |
| 20260903214727 | 70 | 271 | 4.0 | 8.0 | 0.00 | 0.05 | 0.05 | 65 | 1011.6 |
| 20260903213725 | 70 | 262 | 4.0 | 9.0 | 0.00 | 0.05 | 0.05 | 63 | 1011.5 |
| 20260903212725 | 70 | 279 | 4.0 | 10.0 | 0.00 | 0.05 | 0.05 | 62 | 1011.6 |
| 20260903211723 | 71 | 257 | 4.0 | 11.0 | 0.00 | 0.05 | 0.05 | 62 | 1011.6 |
| 20260903210721 | 71 | 244 | 3.0 | 10.0 | 0.00 | 0.05 | 0.05 | 64 | 1011.5 |
| 20260903210205 | 71 | 244 | 3.0 | 8.0 | 0.00 | 0.05 | 0.05 | 63 | 1011.6 |
| 20260903204721 | 71 | 247 | 4.0 | 10.0 | 0.00 | 0.05 | 0.05 | 65 | 1011.6 |
| 20260903203717 | 70 | 217 | 3.0 | 11.0 | 0.00 | 0.05 | 0.05 | 64 | 1011.7 |
| 20260903202717 | 70 | 271 | 3.0 | 6.0 | 0.00 | 0.05 | 0.05 | 67 | 1011.8 |
| 20260903201716 | 70 | 266 | 3.0 | 10.0 | 0.00 | 0.05 | 0.05 | 68 | 1011.8 |
| 20260903201158 | 69 | 271 | 4.0 | 9.0 | 0.00 | 0.05 | 0.05 | 70 | 1011.7 |
| 20260903195712 | 69 | 278 | 4.0 | 10.0 | 0.00 | 0.05 | 0.05 | 69 | 1011.8 |
| 20260903194711 | 69 | 287 | 4.0 | 10.0 | 0.00 | 0.05 | 0.05 | 73 | 1011.9 |
| 20260903193708 | 69 | 261 | 3.0 | 7.0 | 0.00 | 0.05 | 0.05 | 72 | 1012.0 |